Zurück zum Katalog

OPS 4682 DEB

AktivPO
NORAD 38424·DEBRIS·🇺🇸 United States

Gestartet Apr 3, 1965 von Vandenberg Space Force Base

Loading…

Nächste Überflüge (nächste 24 Stunden)

TLE

AktuellSource: Space-Track

Epoche: Sep 13, 2026, 18:19 UTC

1 38424U 65027ED  26256.76363108  .00000997  00000-0  31025-2 0  9994
2 38424  90.2576   9.2012 0024659 275.4145  84.4166 13.04009366323379

Verfolge OPS 4682 DEB in Echtzeit mit AllMySat

Download on the App Store